sat.trackr.live / text

‹ back to catalog

STARLINK-11485 [DTC]

NORAD 62229 · 2024-231M

PAYLOAD ACTIVE UNKNOWN

§ Identity

Operator
Country
US
Launch date
2024-12-05
Launch site
AFWTR
Launch vehicle
Mass (kg)
RCS (m²)

Purposes: comms

External: N2YO · Heavens-Above · Gunter

§ Orbital elements

Epoch: 2026-09-21T03:49:29.543808Z

Period
91.74 min
Inclination
53.1575°
Eccentricity
0.0001106
Mean motion
15.69729817 rev/d
Perigee alt
358.9 km
Apogee alt
360.4 km
Semi-major
6,737.8 km
B*
9.3565e-4
RAAN
217.5662°
Arg perigee
83.4309°
Mean anomaly
276.6835°
Rev number
10,411

§ Raw data

STARLINK-11485 [DTC]1 62229U 24231M   26264.15936972  .00114433  00000+0  93565-3 0  99912 62229  53.1575 217.5662 0001106  83.4309 276.6835 15.69729817104112

JSON: /api/v1/satellites/62229 · /tle

For live sub-satellite position, see the globe view (requires WebGL).

§ Visibility from observer

Set your observer location to see the next 7 days of passes ≥ 10°. The values pass through the URL so the page stays shareable.

No JS? Fill the form by hand. The geolocation button needs JavaScript.